www.pogodaiklimat.ru
ПОГОДА в Сан-Хуане
Время
(UTC), дата
03 16.01
06 16.01
09 16.01
12 16.01
15 16.01
18 16.01
21 16.01
00 17.01
03 17.01
06 17.01
09 17.01
12 17.01
15 17.01
18 17.01
21 17.01
00 18.01
03 18.01
06 18.01
09 18.01
12 18.01
15 18.01
18 18.01
21 18.01
00 19.01
03 19.01
06 19.01
09 19.01
12 19.01
15 19.01
18 19.01
21 19.01
00 20.01
03 20.01
06 20.01
09 20.01
12 20.01
15 20.01
18 20.01
21 20.01
00 21.01
03 21.01
06 21.01
09 21.01
12 21.01
15 21.01
18 21.01
21 21.01
00 22.01
03 22.01
06 22.01
09 22.01
12 22.01
15 22.01
18 22.01
21 22.01
Ветер
(напр.,м/с)
Видим. Явления Облачность Т
(С)
Тd
(С)
f
(%)
Тe
(С)
Тes
(С)
Комфортность P
(гПа)
Po
(гПа)
Тmin
(С)
Tmax
(С)
R
(мм)
R24
(мм)
S
(см)
Ю 4 15 км 6/0
[Ac und]
+24.0 +4.9 29 +24 +24 комфорт 1013.6 947.0
Ю 6 15 км 9/0
[Ac As]
+21.8 +5.0 33 +22 +22 комфорт 1015.5 948.8
Ю 3 15 км 9/0
[Ac As]
+20.6 +4.2 34 +22 +22 комфорт 1017.3 950.2
Ю 4 15 км 10/0
[Ac As]
+21.3 +6.1 37 +22 +23 комфорт 1019.6 952.4 +20.4 +26.4
ЮВ 5 15 км 8/0
[Ac und]
+25.8 -0.9 17 +24 +28 комфорт 1018.4 951.4
Ю 4 15 км 5/0
[Ac und Ci sp]
+29.2 -0.2 15 +27 +36 жарко 1016.4 949.7
Ю 5 15 км 8/0
[Ac As]
+29.4 -0.5 14 +27 +28 жарко 1014.5 947.8
штиль 0 15 км 9/0
[Ac As]
+26.8 +8.2 31 +27 +27 жарко 1015.6 948.6 +21.3 +31.0
З 3 15 км 9/0
[Ac As]
+24.4 +4.1 27 +24 +24 комфорт 1016.2 949.4
ЮЗ 2 15 км 3/0
[Ac As]
+20.2 +5.8 39 +22 +22 комфорт 1015.1 948.2
ЮЗ 1 15 км ясно +16.0 +7.9 59 +17 +17 1014.8 947.4
Ю 4 15 км ясно +23.0 +5.8 33 +23 +27 комфорт 1014.9 948.2 +15.5 +26.8
Ю 2 15 км ясно +28.4 +7.0 26 +28 +46 жарко 1012.6 946.4
ЮВ 3 15 км 1/0
[Ci fib]
+32.2 +6.9 21 +31 +46 жарко 1009.4 943.3
Ю 3 15 км 3/0
[Ci fib]
+33.9 +7.5 20 +32 +36 жарко 1006.9 940.6
Ю 4 15 км 1/0
[Ci fib]
+29.6 +9.0 28 +29 +29 жарко 1007.6 941.7 +23.0 +34.5
ЮЗ 2 15 км ясно +24.1 +12.0 47 +26 +26 жарко 1008.7 942.6
штиль 0 15 км ясно +21.0 +12.8 59 +23 +23 комфорт 1008.3 942.4
Ю 3 15 км 3/0
[Ac As]
+20.3 +11.8 58 +22 +22 комфорт 1008.3 942.5
Ю 2 15 км 1/0
[Ci sp]
+25.2 +14.9 53 +28 +33 жарко 1010.1 944.2 +18.0 +29.6
Ю 4 15 км ясно +31.2 +13.9 35 +33 +45 жарко 1009.1 943.4
ЮВ 4 15 км ясно +34.4 +17.9 38 +38 +52 опасность
солнечного
удара
1006.6 941.0
Ю 6 15 км 3/0
[]
+36.6 +15.7 29 +38 +40 очень
душно
1004.1 938.9
ЮЗ 4 15 км 3/0
[Ac cast]
+31.6 +14.0 34 +33 +33 жарко 1005.1 939.8 +25.2 +37.0
ЮЗ 2 15 км ясно +28.7 +14.8 43 +31 +31 жарко 1006.2 941.0
Ю 2 15 км ясно +25.5 +14.1 49 +28 +28 жарко 1005.1 940.1
штиль 0 15 км 4/0
[Ac trans]
+23.1 +15.5 62 +27 +27 душно 1004.8 939.8
Ю 2 15 км 3/0
[Ci]
+28.2 +16.3 48 +31 +36 душно 1006.0 940.9 +22.0 +31.6
ЮВ 2 15 км 3/0
[Ci]
+34.4 +16.3 34 +37 +56 опасность
солнечного
удара
1003.9 939.3
Ю 3 15 км 6/1 1200 м
[Cu hum Ci]
+38.0 +12.9 22 +38 +51 опасность
солнечного
удара
1000.5 936.5
Ю 7 15 км 9/3 1350 м
[Cb calv Ac As Cs]
+38.8 +12.8 21 +38 +39 очень
жарко
1000.2 935.7
Ю 6 15 км в посл. час морось 10/3 1200 м
[Frnb Ac inh Cs]
+34.0 +15.3 33 +36 +36 душно 1002.5 937.8 +28.2 +40.0 0.0
Ю 2 10 км слаб. морось {гроза} 10/3 1350 м
[Frnb As op]
+29.2 +20.4 59 +36 +36 очень
душно
1005.9 941.2
СЗ 3 15 км зарница {гроза, морось} 10/1 1200 м
[Cb cap As op]
+28.0 +20.3 63 +34 +34 очень
душно
1004.4 940.1 0.0
С 7 15 км ясно +26.6 +19.7 66 +32 +32 очень
душно
1004.5 940.1
С 4 15 км ясно +29.6 +21.2 61 +37 +41 очень
душно
1004.6 940.0 +26.0 +34.0 0.0
СВ 4 15 км 1/0
[Ci]
+37.2 +19.0 35 +42 +54 опасность
перегрева
1003.1 938.9
В 2 15 км 3/3 1200 м
[Cu med, cong]
+40.4 +16.3 25 +42 +56 опасность
перегрева
1000.0 936.2
Ю 4 15 км 4/3 1200 м
[Cu med, cong Ci ing]
+41.0 +14.5 21 +42 +44 опасность
перегрева
996.8 933.0
Ю 11 5000 м пыльный позёмок 5/3 1200 м
[Cb cap Ac cast]
+32.2 +17.5 42 +36 +36 очень
душно
1002.2 937.6 +29.6 +43.0
Ю 9 15 км зарница {гроза} 4/1 1200 м
[Cb cap Ac As]
+29.6 +15.4 42 +32 +32 душно 1005.3 941.0
Ю 5 15 км {гроза} 3/0
[Ac As]
+26.2 +16.5 55 +30 +30 душно 1008.5 944.0
ЮВ 5 15 км 4/0
[Ac As]
+23.2 +17.2 69 +28 +28 душно 1009.1 944.2
ЮВ 3 15 км 4/0
[Ac cast]
+26.0 +17.3 59 +30 +33 душно 1010.5 945.0 +23.0 +32.2
Ю 5 15 км ясно +30.4 +17.2 45 +34 +44 очень
душно
1009.5 944.2
Ю 6 15 км 3/3 1200 м
[Cb calv]
+34.1 +14.8 31 +36 +41 душно 1007.1 942.0
Ю 7 15 км 4/4 1500 м
[Cu hum]
+36.8 +10.3 20 +36 +36 очень
жарко
1003.8 938.9
Ю 5 15 км 5/1 1500 м
[Cu hum Ac As]
+33.4 +12.2 28 +34 +34 очень
жарко
1005.2 940.1 +26.0 +37.6
Ю 8 15 км 5/0
[Ac As]
+30.0 +12.6 34 +31 +31 жарко 1008.9 943.7
Ю 9 15 км 5/0
[Ac As]
+27.4 +13.7 43 +29 +29 жарко 1009.1 944.0
Ю 6 15 км 5/0
[Ac As]
+25.2 +13.7 49 +27 +27 жарко 1009.7 944.6
Ю 6 15 км 4/0
[Ac As]
+25.6 +16.1 56 +29 +30 душно 1012.4 946.8 +24.0 +33.4
Ю 6 15 км 3/0
[Ac As]
+30.2 +15.4 41 +33 +38 душно 1011.5 946.1
ЮВ 6 15 км 1/1 1350 м
[Cu hum]
+34.8 +10.5 23 +34 +40 очень
жарко
1008.8 943.8
Ю 5 15 км 1/1 1350 м
[Cu hum]
+36.6 +11.0 21 +36 +38 очень
жарко
1006.2 941.3
Местоположение метеостанции Сан-Хуан (Аргентина): широта -31.40 долгота -68.41 высота над уровнем моря 598 м.
В архиве по умолчанию представлена погода в Сан-Хуане за последнюю неделю. Архивные данные за месяц целиком и за предыдущие месяцы, начиная с января 2011 года, Вы можете получить, выбрав интересующий диапазон дат из раскрывающегося списка и нажав кнопку "Найти!".
*Определитесь, кто Вы:
Внимание! Время в таблицах - всемирное. Для получения местного времени необходимо прибавить поправку, которая равна -3 ч.
Смотрите также архив погоды в соседних городах и на ближайших метеорологических станциях:
Партнеры нашего сайта:      
Пояснения к столбцам:
  • Ветер - указаны скорость ветра в м/с - средняя за 10 мин, порывы в срок и между сроками (в фигурных скобках) и направление, откуда дует ветер: С - северный,
  • СВ - северо-восточный, В - восточный, ЮВ - юго-восточный, Ю - южный, ЮЗ - юго-западный, З - западный, СЗ - северо-западный.
  • Видимость - горизонтальная дальность видимости в метрах или километрах. При видимости от 1 до 10 км при отсутствии осадков обычно наблюдается дымка, при ухудшении видимости до 1 км и менее - туман. В сухую погоду видимость может ухудшаться дымом, пылью или мглою.
  • Явления - указаны атмосферные явления, наблюдавшиеся в срок или в последний час перед сроком; фигурными скобками обозначены явления, наблюдавшиеся между сроками (за 1-3 часа до срока); квадратными скобками обозначены град или гололедные отложения с указанием их диаметра в мм.
  • Облачность - указаны через наклонную черту общая и нижняя облачность в баллах и высота нижней границы облаков в метрах; квадратными скобками обозначены формы облаков: Ci - перистые, Cs - перисто-слоистые, Cc - перисто-кучевые, Ac - высококучевые, As - высокослоистые, Sc - слоисто-кучевые, Ns - слоисто-дождевые, Cu - кучевые, Cb - кучево-дождевые. Подробнее классификацию облаков см. в Атласе облаков (PDF).
  • T - Температура воздуха - температура, измеренная на высоте 2 м над землей.
  • Td - Температура точки росы - температура, при понижении до которой содержащийся в воздухе водяной пар достигнет насыщения.
  • f - Относительная влажность воздуха - влажноcть воздуха, измеренная на высоте 2 м над землей.
  • Te - Эффективная температура - температура, которую ощущает одетый по сезону человек в тени. Характеристика душности погоды. При расчете учитывается влияние влажности воздуха и скорости ветра на теплоощущения человека.
  • Tes - Эффективная температура на солнце - температура, которую ощущает человек, с поправкой на солнечный нагрев. Характеристика знойности погоды. Зависит от высоты солнца над горизонтом, облачности и скорости ветра. Ночью, в пасмурную погоду, а также при ветре 12 м/с и более поправка равна нулю.
  • P - Атмосферное давление - приведенное к уровню моря атмосферное давление.
  • Po - Атмосферное давление - измеренное на уровне метеостанции атмосферное давление.
  • Tmin - Минимальная температура - минимум температуры воздуха на высоте 2 м над землей.
  • Tmax - Максимальная температура - максимум температуры воздуха на высоте 2 м над землей.
  • R - Количество осадков - Количество выпавших осадков за период времени, мм. При наведении курсора мыши на число - период времени, за который выпало указанное количество осадков.
  • R24 - Количество осадков - Количество выпавших осадков за 24 часа, мм.
  • S - Снежный покров - Высота снежного покрова, см. При наведении курсора мыши на число - состояние снежного покрова и степень покрытия местности в баллах.